Volver al catálogo

STARLINK-37399

ActivoComunicacionesSSO
NORAD 68772·PAYLOAD·🇺🇸 United States

Lanzado Apr 19, 2026 desde Vandenberg Space Force Base

Loading…

Próximos Pases (próximas 24 horas)

TLE

ActualizadoSource: CelesTrak SupGP

Época: Sep 15, 2026, 03:56 UTC

1 68772C 26086G   26258.16437500 -.00044236  00000+0 -13732-2 0  2587
2 68772  97.2841 293.6369 0001096  86.9127 329.8850 15.33462008    18

Sigue STARLINK-37399 en tiempo real con AllMySat

Download on the App Store